This is the latest recevied weather packets stored in our database for station/object N0KTA-2. If no packets are shown the sender has not sent any weather packets the latest 10 day(s).
| Time | Temp. | Humidity | Pressure | Rain* | Wind** | Luminosity | Snow |
|---|---|---|---|---|---|---|---|
| 1777929564 | 28.33° C | 41% | 997.1 hPa | 0 mm | - | - | - |
| 1777928963 | 28.33° C | 40% | 997.2 hPa | 0 mm | - | - | - |
| 1777928364 | 28.33° C | 40% | 997.3 hPa | 0 mm | - | - | - |
| 1777927765 | 28.89° C | 41% | 997.4 hPa | 0 mm | - | - | - |
| 1777927164 | 28.89° C | 39% | 997.5 hPa | 0 mm | - | - | - |
| 1777926563 | 29.44° C | 38% | 997.5 hPa | 0 mm | - | - | - |
| 1777925964 | 29.44° C | 39% | 997.5 hPa | 0 mm | - | - | - |
| 1777925363 | 29.44° C | 38% | 997.7 hPa | 0 mm | - | - | - |
| 1777924764 | 28.89° C | 39% | 997.7 hPa | 0 mm | - | - | - |
| 1777924164 | 29.44° C | 37% | 998 hPa | 0 mm | - | - | - |
| 1777923565 | 29.44° C | 38% | 998 hPa | 0 mm | - | - | - |
| 1777922964 | 29.44° C | 39% | 998 hPa | 0 mm | - | - | - |
| 1777922365 | 28.89° C | 38% | 998.2 hPa | 0 mm | - | - | - |
| 1777921764 | 28.89° C | 40% | 998.2 hPa | 0 mm | - | - | - |
| 1777921164 | 28.89° C | 41% | 998.4 hPa | 0 mm | - | - | - |
| 1777920563 | 28.33° C | 40% | 998.5 hPa | 0 mm | - | - | - |
| 1777919964 | 28.33° C | 39% | 998.5 hPa | 0 mm | - | - | - |
| 1777919363 | 28.33° C | 40% | 998.6 hPa | 0 mm | - | - | - |
| 1777918764 | 27.78° C | 40% | 998.8 hPa | 0 mm | - | - | - |
| 1777918165 | 27.22° C | 40% | 999.1 hPa | 0 mm | - | - | - |
| 1777917564 | 27.22° C | 42% | 999.2 hPa | 0 mm | - | - | - |
| 1777916964 | 26.67° C | 42% | 999.2 hPa | 0 mm | - | - | - |
| 1777916363 | 26.67° C | 42% | 999.2 hPa | 0 mm | - | - | - |
| 1777915763 | 26.11° C | 42% | 999.3 hPa | 0 mm | - | - | - |
| 1777915164 | 26.11° C | 43% | 999.3 hPa | 0 mm | - | - | - |
* Rain latest hour (hover to see other rain measurements)
** Current wind speed in m/s (hover to see current wind gust speed)